Погода в Сидзуоке

Япония     34°59′34″N   138°26′10″E
темп.,
°C
ветер,
м/с
пор.,
м/с
влажн.,
%
обл.,
%
осадки,
мм/ч
давл.,
гПа
погр.,
м
15 августа, пн
пн1500:00+25зсз3386100 0.8 1007122
03:00+25сз22865 0.8 100687
06:00+25ссз118683 0.0 100777
09:00+27в1178100 0.0 1008330
12:00+29вюв337454 0.0 1007465
15:00+31ююз5867100 0.4 1006591
18:00+29юз61179100 0.0 1006339
21:00+27зюз478727 0.0 1008192
16 августа, вт
вт1600:00+26зюз468999 0.0 1007241
03:00+26зюз4889100 0.5 1006322
06:00+26зюз4789100 0.0 1006289
09:00+29юз697583 0.3 1006509
12:00+31юз101268100 0.1 1005875
15:00+31юз91470100 0.1 1005752
18:00+28юз9147982 0.1 1005543
21:00+27зюз71184100 0.1 1007353
17 августа, ср
ср1700:00+27зюз7118499 0.0 1007384
03:00+26зюз5108782 0.1 1006328
06:00+26з2482100 0.1 1007153
09:00+28юз3674100 0.1 1007232
12:00+30юз366366 0.0 1007425
15:00+30юз4565100 0.0 1007278
18:00+28зюз5772100 0.0 1007162
21:00+27з3477100 0.0 1008135
18 августа, чт
чт1800:00+25зсз227633 0.0 1008122
03:00+25з247385 0.0 1008162
06:00+25з2372100 0.0 1007152
09:00+27юз3568100 0.0 1008456
12:00+28юз5864100 0.0 1007523
15:00+29юз811631 0.0 1005743
18:00+27юз610723 0.0 1005460
21:00+25з347917 0.0 1007235
19 августа, пт
пт1900:00+25с3382100 0.0 1006210
03:00+24ссв338280 0.0 1006247
06:00+24ссв3383100 0.1 1006302
09:00+26всв4478100 0.1 1007550
12:00+27всв3371100 0.1 1005591
15:00+27ю226947 0.1 1005484
18:00+26юз228012 0.1 1005189
21:00+25зсз228324 0.3 1006129